Home   Weather   Sandnessjøen   Past weeks

Flag for Norway Past Weather in Sandnessjøen, Norway — Yesterday and Last 2 Weeks

Now
46 °F

Light rain. Broken clouds.


Feels Like: 44 °F
Forecast: 48 / 52 °F
Wind: 5 mph from Northeast

Location: Sandnessjoen / Stokka

Current Time: Sep 29, 2016 at 7:00:13 PM

Latest Report: Sep 29, 2016 at 5:50 PM


Visibility: N/A

Pressure: 28.80 "Hg

Humidity: 82%

Dew Point: 41 °F

Location of SandnessjøenLocation

Past Weather in Sandnessjøen — Graph

°F

Sandnessjøen Temperature Yesterday

Maximum temperature yesterday: 57 °F (at 11:20 AM)
Minimum temperature yesterday: 50 °F (at 6:20 AM)
Average temperature yesterday: 53 °F

High & Low Weather Summary for the Past Weeks

 TemperatureHumidityPressure
High68 °F (Sep 16, 2:20 PM)100% (Sep 21, 8:50 PM)30.21 "Hg (Sep 21, 8:50 PM)
Low43 °F (Sep 16, 5:50 AM)38% (Sep 16, 2:20 PM)28.80 "Hg (Sep 29, 5:20 PM)
Average56 °F79%29.95 "Hg
* Reported Sep 14 5:20 PM — Sep 29 5:20 PM, Sandnessjøen, Weather by CustomWeather, © 2016

Note: Actual official high and low records may vary slightly from our data, if they occured in-between our weather recording intervals... More about our weather records

Advertising

Sandnessjøen Weather History for the Previous 24 Hours

Scroll right to see more
 ConditionsComfort  
Time TempWeatherWind HumidityBarometerVisibility
5:20 PM
Thu, Sep 29
46 °FLight rain. Broken clouds.5 mph82%28.80 "HgN/A
4:50 PM48 °FLight rain. Broken clouds.7 mph76%28.82 "HgN/A
4:20 PM48 °FScattered showers. Broken clouds.7 mph71%28.82 "HgN/A
3:50 PM48 °FScattered showers. Broken clouds.6 mph76%28.85 "HgN/A
3:20 PM50 °FScattered showers. Broken clouds.5 mph67%28.85 "HgN/A
2:50 PM50 °FPartly sunny.7 mph67%28.88 "HgN/A
2:20 PM48 °FLight rain. Partly sunny.9 mph71%28.91 "HgN/A
12:20 PM50 °FBroken clouds.9 mph67%29.00 "HgN/A
11:50 AM50 °FBroken clouds.6 mph67%29.03 "HgN/A
11:20 AM50 °FPartly sunny.8 mph71%29.06 "HgN/A
10:20 AM48 °FPassing clouds.8 mph76%29.12 "HgN/A
9:50 AM48 °FPassing clouds.5 mph82%29.12 "HgN/A
8:50 AM46 °FScattered clouds.5 mph82%29.18 "HgN/A
7:50 AM46 °FScattered showers. Broken clouds.8 mph87%29.21 "HgN/A
7:20 AM46 °FScattered showers. Broken clouds.10 mph87%29.24 "HgN/A
6:50 AM46 °FSprinkles. Partly cloudy.13 mph87%29.27 "HgN/A
6:20 AM46 °FScattered showers. Passing clouds.6 mph87%29.27 "HgN/A
5:50 AM46 °FScattered showers. Passing clouds.8 mph93%29.30 "HgN/A
5:20 AM46 °FScattered showers. Passing clouds.8 mph87%29.33 "HgN/A
4:50 AM46 °FPassing clouds.9 mph87%29.33 "HgN/A
10:20 PM
Wed, Sep 28
52 °FSprinkles. Passing clouds.18 mph94%29.30 "HgN/A
9:50 PM52 °FSprinkles. Partly cloudy.20 mph94%29.27 "HgN/A
9:20 PM52 °FScattered showers. Partly cloudy.23 mph88%29.24 "HgN/A
8:50 PM52 °FScattered showers. Partly cloudy.28 mph88%29.24 "HgN/A
8:20 PM52 °FScattered showers. Partly cloudy.28 mph88%29.21 "HgN/A
7:50 PM52 °FScattered showers. Partly cloudy.15 mph88%29.21 "HgN/A
7:20 PM52 °FSprinkles. Partly cloudy.10 mph94%29.18 "HgN/A
Weather by CustomWeather, © 2016

See weather overviewHow to use our weather pages